Weather History for Nucla Hopkins Field Airport, CO

Change the Weather History Date:

Monday, May 19, 2014

  Actual Average Record
Temperature  
Mean Temperature 70 °F -  
Max Temperature 80 °F - - ()
Min Temperature 59 °F - - ()
Cooling Degree Days 4    
Growing Degree Days 20 (Base 50)    
Moisture  
Dew Point 9 °F    
Average Humidity 9    
Maximum Humidity 14    
Minimum Humidity 6    
Precipitation  
Precipitation 0.00 in - - ()
Sea Level Pressure  
Sea Level Pressure 29.92 in    
Wind  
Wind Speed 15 mph (SSW)    
Max Wind Speed 25 mph    
Max Gust Speed 34 mph    
Visibility 10 miles    
Events      
T = Trace of Precipitation, MM = Missing Value Source: NWS Daily Summary

Daily Weather History Graph

Daily Weather History Graph

Search for Another Location

Airport:

Trip Planner

Search our weather history database for the weather conditions in past years. The results will help you decide how hot, cold, wet, or windy it might be!

Date:

Astronomy

May. 19, 2014 Rise Set
Actual Time 6:00 AM MDT 8:21 PM MDT
Civil Twilight 5:30 AM MDT 8:52 PM MDT
Nautical Twilight 4:53 AM MDT 9:29 PM MDT
Astronomical Twilight 4:12 AM MDT 10:09 PM MDT
Moon 12:13 AM MDT (5/19) 10:59 AM MDT (5/19)
Length of Visible Light 15h 21m
Length of Day
14h 21m
Waning Gibbous, 70% of the Moon is Illuminated
May 19
Waning Gibbous
May 21
Last Quarter
May 28
New
Jun 5
First Quarter
Jun 12
Full

Hourly Weather History & Observations

Time (MDT) Temp. Dew Point Humidity Pressure Visibility Wind Dir Wind Speed Gust Speed Precip Events Conditions
12:15 AM 68.0 °F 5.0 °F 8% 29.89 in 10.0 mi South 21.9 mph 29.9 mph N/A   Clear
12:35 AM 68.0 °F 5.0 °F 8% 29.89 in 10.0 mi South 19.6 mph 29.9 mph N/A   Clear
12:55 AM 68.0 °F 5.0 °F 8% 29.90 in 10.0 mi SSW 16.1 mph 25.3 mph N/A   Clear
1:15 AM 66.2 °F 5.0 °F 9% 29.91 in 10.0 mi SSW 17.3 mph 32.2 mph N/A   Clear
1:35 AM 66.2 °F 5.0 °F 9% 29.91 in 10.0 mi SSW 16.1 mph 24.2 mph N/A   Clear
1:55 AM 64.4 °F 5.0 °F 10% 29.92 in 10.0 mi South 13.8 mph 18.4 mph N/A   Clear
2:15 AM 64.4 °F 5.0 °F 10% 29.92 in 10.0 mi South 10.4 mph - N/A   Clear
2:35 AM 64.4 °F 5.0 °F 10% 29.92 in 10.0 mi South 10.4 mph 18.4 mph N/A   Clear
2:55 AM 64.4 °F 5.0 °F 10% 29.92 in 10.0 mi South 9.2 mph 18.4 mph N/A   Clear
3:15 AM 62.6 °F 5.0 °F 10% 29.92 in 10.0 mi South 12.7 mph 20.7 mph N/A   Clear
3:35 AM 62.6 °F 5.0 °F 10% 29.92 in 10.0 mi South 10.4 mph 17.3 mph N/A   Clear
3:55 AM 62.6 °F 5.0 °F 10% 29.92 in 10.0 mi South 9.2 mph - N/A   Clear
4:15 AM 62.6 °F 5.0 °F 10% 29.92 in 10.0 mi South 9.2 mph - N/A   Clear
4:35 AM 62.6 °F 5.0 °F 10% 29.92 in 10.0 mi SSE 11.5 mph - N/A   Clear
4:55 AM 60.8 °F 6.8 °F 12% 29.93 in 10.0 mi SSE 8.1 mph - N/A   Clear
5:15 AM 59.0 °F 8.6 °F 14% 29.93 in 10.0 mi SE 6.9 mph - N/A   Clear
5:35 AM 60.8 °F 6.8 °F 12% 29.94 in 10.0 mi SSE 5.8 mph - N/A   Clear
5:55 AM 60.8 °F 8.6 °F 13% 29.94 in 10.0 mi SSE 8.1 mph - N/A   Clear
6:15 AM 59.0 °F 8.6 °F 14% 29.94 in 10.0 mi South 9.2 mph - N/A   Clear
6:35 AM 59.0 °F 8.6 °F 14% 29.95 in 10.0 mi South 8.1 mph - N/A   Clear
7:55 AM 64.4 °F 12.2 °F 13% 29.97 in 10.0 mi South 13.8 mph 19.6 mph N/A   Clear
8:55 AM 68.0 °F 14.0 °F 12% 29.97 in 10.0 mi South 17.3 mph 25.3 mph N/A   Clear
9:15 AM 68.0 °F 14.0 °F 12% 29.97 in 10.0 mi SSW 13.8 mph 26.5 mph N/A   Clear
9:35 AM 69.8 °F 14.0 °F 12% 29.98 in 10.0 mi South 12.7 mph 26.5 mph N/A   Clear
9:55 AM 71.6 °F 14.0 °F 11% 29.98 in 10.0 mi SSW 18.4 mph 26.5 mph N/A   Clear
10:15 AM 71.6 °F 14.0 °F 11% 29.97 in 10.0 mi South 18.4 mph 23.0 mph N/A   Clear
10:35 AM 71.6 °F 14.0 °F 11% 29.97 in 10.0 mi SW 17.3 mph 25.3 mph N/A   Clear
10:55 AM 73.4 °F 14.0 °F 10% 29.96 in 10.0 mi SSW 18.4 mph 24.2 mph N/A   Clear
11:15 AM 73.4 °F 14.0 °F 10% 29.96 in 10.0 mi South 18.4 mph 25.3 mph N/A   Clear
11:35 AM 73.4 °F 14.0 °F 10% 29.96 in 10.0 mi SSW 18.4 mph 27.6 mph N/A   Clear
12:15 PM 75.2 °F 14.0 °F 10% 29.95 in 10.0 mi SSW 18.4 mph 27.6 mph N/A   Clear
12:35 PM 77.0 °F 14.0 °F 9% 29.95 in 10.0 mi SW 15.0 mph 24.2 mph N/A   Clear
12:55 PM 77.0 °F 14.0 °F 9% 29.94 in 10.0 mi SW 17.3 mph 24.2 mph N/A   Clear
1:15 PM 78.8 °F 14.0 °F 9% 29.94 in 10.0 mi SW 16.1 mph 23.0 mph N/A   Clear
1:35 PM 78.8 °F 14.0 °F 9% 29.94 in 10.0 mi SSW 17.3 mph 31.1 mph N/A   Clear
1:55 PM 78.8 °F 12.2 °F 8% 29.93 in 10.0 mi SW 16.1 mph 29.9 mph N/A   Clear
2:15 PM 78.8 °F 12.2 °F 8% 29.92 in 10.0 mi SW 18.4 mph 31.1 mph N/A   Clear
2:35 PM 78.8 °F 12.2 °F 8% 29.92 in 10.0 mi SW 21.9 mph 29.9 mph N/A   Clear
2:55 PM 78.8 °F 10.4 °F 7% 29.92 in 10.0 mi WSW 21.9 mph 29.9 mph N/A   Clear
3:15 PM 80.6 °F 10.4 °F 7% 29.91 in 10.0 mi SSW 17.3 mph 26.5 mph N/A   Clear
3:35 PM 80.6 °F 10.4 °F 7% 29.91 in 10.0 mi SW 18.4 mph 25.3 mph N/A   Clear
3:55 PM 80.6 °F 8.6 °F 6% 29.90 in 10.0 mi SW 23.0 mph 28.8 mph N/A   Clear
4:15 PM 80.6 °F 8.6 °F 6% 29.90 in 10.0 mi SSW 25.3 mph 34.5 mph N/A   Clear
4:55 PM 80.6 °F 10.4 °F 7% 29.89 in 10.0 mi SSW 19.6 mph 25.3 mph N/A   Clear
5:15 PM 80.6 °F 8.6 °F 6% 29.88 in 10.0 mi SW 20.7 mph 26.5 mph N/A   Clear
5:35 PM 80.6 °F 10.4 °F 7% 29.88 in 10.0 mi SW 16.1 mph 23.0 mph N/A   Clear
5:55 PM 78.8 °F 10.4 °F 7% 29.88 in 10.0 mi SW 18.4 mph 25.3 mph N/A   Clear
6:15 PM 78.8 °F 10.4 °F 7% 29.88 in 10.0 mi SW 19.6 mph 26.5 mph N/A   Clear
6:35 PM 78.8 °F 10.4 °F 7% 29.88 in 10.0 mi SSW 17.3 mph 23.0 mph N/A   Clear
6:55 PM 78.8 °F 10.4 °F 7% 29.87 in 10.0 mi SW 17.3 mph 26.5 mph N/A   Clear
7:15 PM 77.0 °F 10.4 °F 8% 29.87 in 10.0 mi SSW 16.1 mph 27.6 mph N/A   Clear
7:35 PM 77.0 °F 8.6 °F 7% 29.88 in 10.0 mi SW 20.7 mph 26.5 mph N/A   Clear
7:55 PM 75.2 °F 8.6 °F 8% 29.88 in 10.0 mi SW 15.0 mph 25.3 mph N/A   Clear
8:15 PM 73.4 °F 8.6 °F 8% 29.89 in 10.0 mi SW 16.1 mph 25.3 mph N/A   Clear
8:35 PM 73.4 °F 8.6 °F 8% 29.89 in 10.0 mi SW 15.0 mph 20.7 mph N/A   Clear
8:55 PM 71.6 °F 8.6 °F 9% 29.90 in 10.0 mi SW 9.2 mph - N/A   Clear
9:15 PM 71.6 °F 8.6 °F 9% 29.90 in 10.0 mi SSW 9.2 mph 20.7 mph N/A   Clear
9:35 PM 71.6 °F 8.6 °F 9% 29.91 in 10.0 mi SSW 10.4 mph - N/A   Clear
9:55 PM 71.6 °F 8.6 °F 9% 29.92 in 10.0 mi South 15.0 mph 20.7 mph N/A   Clear
10:15 PM 69.8 °F 8.6 °F 9% 29.93 in 10.0 mi South 11.5 mph 16.1 mph N/A   Clear
10:35 PM 69.8 °F 8.6 °F 9% 29.94 in 10.0 mi South 9.2 mph - N/A   Clear
10:55 PM 64.4 °F 8.6 °F 11% 29.95 in 10.0 mi South 6.9 mph - N/A   Clear
11:15 PM 66.2 °F 8.6 °F 11% 29.95 in 10.0 mi South 11.5 mph - N/A   Clear
11:35 PM 66.2 °F 8.6 °F 11% 29.96 in 10.0 mi South 10.4 mph - N/A   Clear